Flag for China Weather past 2 weeks in Taiyuan, Shanxi, China

Now
41 °F

Clear.


Feels Like: 32 °F
Forecast: 12 / 33 °F
Wind: 17 mph from Northwest

Location: Taiyuan Airport

Current Time: Mar 2, 2015 at 11:33:59 PM

Latest Report: Mar 2, 2015 at 11:00 PM


Visibility: 10 mi

Pressure: 29.98 "Hg

Humidity: 17%

Dew point: 0 °F

Location of TaiyuanLocation

Historic Weather in Taiyuan — Graph

°F

Taiyuan temperature yesterday

Maximum temperature yesterday: 46 °F (at 3:30 PM)
Minimum temperature yesterday: 18 °F (at 4:30 AM)
Average temperature yesterday: 33 °F

Past Weeks' High & Low Weather Summary

 TemperatureHumidityPressure
High57 °F (Feb 17, 3:00 PM)93% (Feb 19, 11:00 AM)30.36 "Hg (Feb 19, 11:00 AM)
Low16 °F (Feb 22, 5:30 AM)5% (Feb 17, 4:30 PM)29.83 "Hg (Feb 24, 2:30 PM)
Average33 °F44%30.11 "Hg
* Reported Feb 15 10:00 PM — Mar 2 10:30 PM, Taiyuan, Weather by CustomWeather, © 2015

Note: Actual official high and low records may vary slightly from our data, if they occured in-between our weather recording intervals... More about our weather records

Advertising

Taiyuan weather history for previous 24 hours

 ConditionsComfort  
Time TempWeatherWind HumidityBarometerVisibility
10:30 PM
Mon, Mar 2
41 °FClear.20 mph17%29.98 "Hg10 mi
10:00 PM41 °FClear.17 mph16%29.95 "Hg10 mi
9:30 PM43 °FClear.15 mph16%29.95 "Hg10 mi
9:00 PM41 °FClear.15 mph17%29.92 "Hg10 mi
8:30 PM41 °FClear.8 mph17%29.92 "Hg10 mi
8:00 PM41 °FPassing clouds.6 mph17%29.89 "HgN/A
7:30 PM43 °FClear.3 mph16%29.89 "Hg10 mi
7:00 PM43 °FClear.6 mph15%29.89 "Hg10 mi
6:30 PM45 °FClear.13 mph13%29.89 "Hg10 mi
6:00 PM46 °FSunny.15 mph12%29.86 "Hg10 mi
5:30 PM46 °FSunny.17 mph11%29.86 "Hg10 mi
5:00 PM48 °FSunny.17 mph11%29.83 "Hg10 mi
4:30 PM48 °FSunny.22 mph10%29.83 "Hg10 mi
4:00 PM50 °FSunny.17 mph9%29.83 "Hg10 mi
3:30 PM50 °FPassing clouds.15 mph10%29.83 "HgN/A
3:00 PM50 °FSunny.15 mph11%29.83 "Hg10 mi
2:30 PM48 °FSunny.8 mph15%29.83 "Hg10 mi
2:00 PM48 °FPassing clouds.8 mph18%29.83 "HgN/A
1:30 PM46 °FPassing clouds.8 mph21%29.86 "HgN/A
1:00 PM46 °FClear.3 mph21%29.86 "Hg5 mi
12:30 PM45 °FClear.3 mph23%29.89 "Hg5 mi
12:00 PM45 °FClear.6 mph27%29.89 "Hg4 mi
11:30 AM41 °FClear.3 mph33%29.92 "Hg4 mi
11:00 AM39 °FHaze.3 mph42%29.92 "Hg3 mi
10:30 AM36 °FHaze.3 mph48%29.95 "Hg3 mi
10:00 AM34 °FClear.1 mph51%29.95 "Hg4 mi
9:30 AM32 °FClear.1 mph55%29.95 "Hg4 mi
9:00 AM32 °FClear.3 mph55%29.95 "Hg4 mi
8:30 AM30 °FClear.1 mph59%29.95 "Hg4 mi
8:00 AM25 °FClear.1 mph74%29.95 "Hg4 mi
7:30 AM21 °FClear.3 mph74%29.95 "Hg4 mi
7:00 AM23 °FClear.1 mph63%29.95 "Hg4 mi
6:30 AM23 °FClear.1 mph68%29.95 "Hg4 mi
6:00 AM25 °FClear.3 mph69%29.95 "Hg4 mi
5:30 AM25 °FClear.3 mph63%29.95 "Hg4 mi
5:00 AM23 °FClear.3 mph74%29.95 "Hg4 mi
4:30 AM23 °FClear.1 mph74%29.95 "Hg4 mi
3:30 AM23 °FClear.3 mph74%29.95 "Hg4 mi
3:00 AM25 °FClear.3 mph69%29.98 "Hg4 mi
2:30 AM25 °FClear.3 mph74%29.98 "Hg4 mi
2:00 AM27 °FClear.3 mph64%30.01 "Hg4 mi
1:30 AM27 °FClear.3 mph69%30.01 "Hg4 mi
1:00 AM28 °FClear.3 mph64%30.01 "Hg4 mi
12:30 AM28 °FClear.6 mph59%30.04 "Hg4 mi
12:00 AM28 °FClear.3 mph59%30.04 "Hg4 mi
11:30 PM
Sun, Mar 1
30 °FClear.3 mph55%30.04 "Hg4 mi
11:00 PM30 °FClear.1 mph55%30.04 "Hg4 mi
Weather by CustomWeather, © 2015

See weather overviewHow to use our weather pages